Change the Weather History Date:

Monday, September 16, 2013

  Actual Average Record
Temperature  
Mean Temperature 48 °F -  
Max Temperature 57 °F 65 °F 89 °F (1939)
Min Temperature 39 °F 43 °F 28 °F (1959)
Degree Days  
Heating Degree Days 17    
Moisture  
Dew Point 37 °F    
Average Humidity 65    
Maximum Humidity 88    
Minimum Humidity 44    
Precipitation  
Precipitation 0.06 in - - ()
Sea Level Pressure  
Sea Level Pressure 30.04 in    
Wind  
Wind Speed 10 mph (NW)    
Max Wind Speed 20 mph    
Max Gust Speed 25 mph    
Visibility 10 miles    
Events      
Averages and records for this station are not official NWS values.
T = Trace of Precipitation, MM = Missing Value Source: NWS Daily Summary

Daily Weather History Graph

Daily Weather History Graph

Search for Another Location

Airport or City:

Trip Planner

Search our weather history database for the weather conditions in past years. The results will help you decide how hot, cold, wet, or windy it might be!

Date:

Astronomy

Sep. 16, 2013 Rise Set
Actual Time 6:11 AM EDT 6:41 PM EDT
Civil Twilight 5:41 AM EDT 7:11 PM EDT
Nautical Twilight 5:05 AM EDT 7:47 PM EDT
Astronomical Twilight 4:27 AM EDT 8:24 PM EDT
Moon 4:55 PM EDT (9/16) 2:44 AM EDT (9/16)
Length of Visible Light 13h 30m
Length of Day
12h 29m
Waxing Gibbous, 90% of the Moon is Illuminated
Sep 16
Waxing Gibbous
Sep 19
Full
Sep 26
Last Quarter
Oct 4
New
Oct 11
First Quarter

Hourly Weather History & Observations

Time (EDT) Temp. Windchill Dew Point Humidity Pressure Visibility Wind Dir Wind Speed Gust Speed Precip Events Conditions
12:15 AM 57.2 °F - 46.4 °F 67% 29.91 in 10.0 mi SW 10.4 mph - N/A   Mostly Cloudy
12:35 AM 57.2 °F - 46.4 °F 67% 29.91 in 10.0 mi SW 8.1 mph - N/A   Mostly Cloudy
12:55 AM 57.2 °F - 46.4 °F 67% 29.92 in 10.0 mi SW 8.1 mph - N/A   Mostly Cloudy
1:15 AM 57.2 °F - 46.4 °F 67% 29.92 in 10.0 mi WSW 8.1 mph - N/A   Mostly Cloudy
1:35 AM 57.2 °F - 46.4 °F 67% 29.92 in 10.0 mi SW 6.9 mph - N/A   Overcast
1:55 AM 57.2 °F - 46.4 °F 67% 29.91 in 10.0 mi WSW 8.1 mph - N/A   Overcast
2:15 AM 57.2 °F - 48.2 °F 72% 29.91 in 10.0 mi WSW 6.9 mph - N/A   Overcast
2:35 AM 57.2 °F - 48.2 °F 72% 29.91 in 10.0 mi SW 5.8 mph - N/A   Overcast
2:55 AM 57.2 °F - 48.2 °F 72% 29.90 in 10.0 mi WSW 5.8 mph - N/A   Overcast
3:35 AM 55.4 °F - 48.2 °F 77% 29.89 in 10.0 mi West 6.9 mph - N/A   Overcast
3:55 AM 55.4 °F - 48.2 °F 77% 29.90 in 10.0 mi West 6.9 mph - N/A   Overcast
4:15 AM 55.4 °F - 48.2 °F 77% 29.91 in 10.0 mi WSW 5.8 mph - N/A   Overcast
4:35 AM 53.6 °F - 50.0 °F 88% 29.92 in 10.0 mi West 4.6 mph - 0.01 in   Overcast
4:55 AM 53.6 °F - 50.0 °F 88% 29.92 in 10.0 mi WSW 4.6 mph - 0.02 in   Overcast
5:15 AM 51.8 °F - 48.2 °F 88% 29.92 in 10.0 mi North 10.4 mph - N/A   Overcast
5:35 AM 51.8 °F - 46.4 °F 82% 29.93 in 10.0 mi North 15.0 mph - 0.02 in   Overcast
5:55 AM 50.0 °F - 44.6 °F 82% 29.94 in 10.0 mi North 11.5 mph - 0.02 in   Overcast
6:15 AM 50.0 °F - 44.6 °F 82% 29.95 in 10.0 mi NNW 8.1 mph - 0.01 in   Overcast
6:35 AM 48.2 °F - 44.6 °F 87% 29.97 in 9.0 mi NNW 11.5 mph 17.3 mph 0.01 in   Overcast
7:15 AM 46.4 °F 40.7 °F 42.8 °F 87% 29.98 in 10.0 mi North 12.7 mph - N/A   Overcast
7:35 AM 46.4 °F 41.1 °F 41.0 °F 81% 29.99 in 10.0 mi North 11.5 mph - N/A   Overcast
7:55 AM 46.4 °F 41.5 °F 41.0 °F 81% 30.00 in 10.0 mi North 10.4 mph - N/A   Overcast
8:15 AM 46.4 °F 41.5 °F 41.0 °F 81% 30.01 in 10.0 mi North 10.4 mph - N/A   Overcast
8:35 AM 46.4 °F 40.1 °F 39.2 °F 76% 30.02 in 10.0 mi North 15.0 mph - N/A   Overcast
8:55 AM 46.4 °F 41.1 °F 39.2 °F 76% 30.02 in 10.0 mi North 11.5 mph 17.3 mph 0.01 in   Overcast
9:15 AM 46.4 °F 41.9 °F 39.2 °F 76% 30.02 in 10.0 mi North 9.2 mph - N/A   Overcast
9:35 AM 46.4 °F 41.5 °F 39.2 °F 76% 30.03 in 10.0 mi North 10.4 mph - N/A   Overcast
9:55 AM 46.4 °F 39.8 °F 39.2 °F 76% 30.03 in 10.0 mi North 16.1 mph 19.6 mph N/A   Overcast
10:15 AM 46.4 °F 41.1 °F 39.2 °F 76% 30.03 in 10.0 mi NNW 11.5 mph - N/A   Overcast
10:35 AM 46.4 °F 39.8 °F 37.4 °F 71% 30.04 in 10.0 mi NNW 16.1 mph - N/A   Mostly Cloudy
10:55 AM 46.4 °F 40.1 °F 37.4 °F 71% 30.05 in 10.0 mi North 15.0 mph - N/A   Mostly Cloudy
11:15 AM 46.4 °F 39.8 °F 37.4 °F 71% 30.05 in 10.0 mi North 16.1 mph - N/A   Overcast
11:36 AM 46.4 °F 42.4 °F 37.4 °F 71% 30.04 in 10.0 mi NNW 8.1 mph - N/A   Overcast
11:55 AM 48.2 °F - 35.6 °F 62% 30.05 in 10.0 mi NNW 13.8 mph - N/A   Overcast
12:15 PM 50.0 °F - 33.8 °F 54% 30.05 in 10.0 mi NNW 16.1 mph 21.9 mph N/A   Mostly Cloudy
12:35 PM 51.8 °F - 35.6 °F 54% 30.04 in 10.0 mi NNW 16.1 mph 21.9 mph N/A   Mostly Cloudy
12:55 PM 51.8 °F - 33.8 °F 50% 30.05 in 10.0 mi NNW 15.0 mph 19.6 mph N/A   Mostly Cloudy
1:15 PM 51.8 °F - 32.0 °F 47% 30.04 in 10.0 mi NW 11.5 mph 20.7 mph N/A   Mostly Cloudy
1:55 PM 51.8 °F - 33.8 °F 50% 30.04 in 10.0 mi NNW 12.7 mph 18.4 mph N/A   Scattered Clouds
2:15 PM 51.8 °F - 32.0 °F 47% 30.04 in 10.0 mi North 13.8 mph 20.7 mph N/A   Partly Cloudy
2:35 PM 51.8 °F - 32.0 °F 47% 30.04 in 10.0 mi NNW 17.3 mph 25.3 mph N/A   Scattered Clouds
2:55 PM 51.8 °F - 30.2 °F 44% 30.05 in 10.0 mi North 13.8 mph 21.9 mph N/A   Scattered Clouds
3:15 PM 53.6 °F - 32.0 °F 44% 30.05 in 10.0 mi NNW 15.0 mph 20.7 mph N/A   Mostly Cloudy
3:35 PM 51.8 °F - 30.2 °F 44% 30.05 in 10.0 mi NNW 15.0 mph 20.7 mph N/A   Scattered Clouds
3:55 PM 51.8 °F - 30.2 °F 44% 30.06 in 10.0 mi NNW 13.8 mph 19.6 mph N/A   Partly Cloudy
4:15 PM 50.0 °F - 30.2 °F 47% 30.06 in 10.0 mi North 18.4 mph 24.2 mph N/A   Clear
4:35 PM 50.0 °F - 30.2 °F 47% 30.07 in 10.0 mi North 17.3 mph 25.3 mph N/A   Mostly Cloudy
4:55 PM 48.2 °F - 30.2 °F 50% 30.08 in 10.0 mi North 18.4 mph - N/A   Scattered Clouds
5:15 PM 48.2 °F - 30.2 °F 50% 30.09 in 10.0 mi North 17.3 mph 23.0 mph N/A   Mostly Cloudy
5:35 PM 48.2 °F - 28.4 °F 46% 30.10 in 10.0 mi North 19.6 mph 24.2 mph N/A   Overcast
5:55 PM 46.4 °F 39.5 °F 28.4 °F 50% 30.12 in 10.0 mi NNW 17.3 mph 21.9 mph N/A   Mostly Cloudy
6:15 PM 46.4 °F 41.5 °F 28.4 °F 50% 30.12 in 10.0 mi NNW 10.4 mph - N/A   Overcast
6:35 PM 44.6 °F 38.4 °F 28.4 °F 53% 30.13 in 10.0 mi NW 12.7 mph 17.3 mph N/A   Overcast
6:55 PM 44.6 °F 39.2 °F 28.4 °F 53% 30.14 in 10.0 mi NNW 10.4 mph - N/A   Overcast
7:15 PM 44.6 °F 39.7 °F 28.4 °F 53% 30.15 in 10.0 mi NW 9.2 mph - N/A   Overcast
7:35 PM 44.6 °F 39.2 °F 28.4 °F 53% 30.15 in 10.0 mi NW 10.4 mph - N/A   Overcast
7:55 PM 44.6 °F 41.4 °F 30.2 °F 57% 30.16 in 10.0 mi NW 5.8 mph - N/A   Overcast
8:15 PM 44.6 °F 39.2 °F 30.2 °F 57% 30.16 in 10.0 mi NNW 10.4 mph - N/A   Overcast
8:35 PM 42.8 °F 37.5 °F 30.2 °F 61% 30.17 in 10.0 mi NW 9.2 mph - N/A   Mostly Cloudy
8:55 PM 42.8 °F 38.6 °F 30.2 °F 61% 30.17 in 10.0 mi NW 6.9 mph - N/A   Clear
9:15 PM 41.0 °F 38.0 °F 30.2 °F 65% 30.17 in 10.0 mi NW 4.6 mph - N/A   Clear
9:35 PM 39.2 °F 34.2 °F 30.2 °F 70% 30.17 in 10.0 mi NW 6.9 mph - N/A   Clear
9:55 PM 39.2 °F 34.2 °F 30.2 °F 70% 30.18 in 10.0 mi NW 6.9 mph - N/A   Clear
10:15 PM 39.2 °F 34.2 °F 30.2 °F 70% 30.18 in 10.0 mi NW 6.9 mph - N/A   Clear
10:35 PM 39.2 °F 34.2 °F 30.2 °F 70% 30.19 in 10.0 mi WNW 6.9 mph - N/A   Clear
10:55 PM 39.2 °F 33.6 °F 30.2 °F 70% 30.20 in 10.0 mi NW 8.1 mph - N/A   Clear
11:15 PM 39.2 °F 33.6 °F 30.2 °F 70% 30.20 in 10.0 mi WNW 8.1 mph - N/A   Clear
11:35 PM 39.2 °F 33.0 °F 30.2 °F 70% 30.20 in 10.0 mi WNW 9.2 mph - N/A   Clear
11:55 PM 39.2 °F 35.0 °F 30.2 °F 70% 30.21 in 10.0 mi WNW 5.8 mph - N/A   Clear